Tracking 25734 objects as of 26-May-2022
HD Live streaming from Space Station
objects crossing your sky now

SL-16 DEB

Track SL-16 DEB now!
10-day predictions


NORAD ID: 39874
Int'l Code: 1993-016AY
Perigee: 707.4 km
Apogee: 859.7 km
Inclination: 70.9 °
Period: 100.4 minutes
Semi major axis: 7154 km
RCS: 0.0081 m2 (small)
Launch date: March 26, 1993
Source: Commonwealth of Independent States (former USSR) (CIS)
Launch site: TYURATAM MISSILE AND SPACE COMPLEX (TTMTR)

Note: This is SATELLITE DEBRIS
aabbcc
Your satellite tracking list
Your tracking list is empty




NASA's NSSDC Master Catalog

Two Line Element Set (TLE):
1 39874U 93016AY  22145.19421473  .00012605  00000-0  41922-2 0  9999
2 39874  70.9393 330.3982 0106463 144.5650 334.4322 14.34595947415571
Source of the keplerian elements: AFSPC